Weather History for Toronto, ON

Change the Weather History Date:

Monday, March 4, 2013

  Actual Average Record
Temperature  
Mean Temperature 26 °F -  
Max Temperature 32 °F 40 °F 44 °F (2004)
Min Temperature 21 °F 28 °F 4 °F (2014)
Degree Days  
Heating Degree Days 38    
Moisture  
Dew Point 16 °F    
Average Humidity 68    
Maximum Humidity 80    
Minimum Humidity 43    
Precipitation  
Precipitation 0.00 in 0.08 in - ()
Sea Level Pressure  
Sea Level Pressure 30.02 in    
Wind  
Wind Speed 10 mph ()    
Max Wind Speed 20 mph    
Max Gust Speed 26 mph    
Visibility 9.1 miles    
Events Snow    
Averages and records for this station are not official NWS values.
T = Trace of Precipitation, MM = Missing Value Source: Averaged Metar Reports

Daily Weather History Graph

Daily Weather History Graph

Search for Another Location

Airport:

Trip Planner

Search our weather history database for the weather conditions in past years. The results will help you decide how hot, cold, wet, or windy it might be!

Date:

Astronomy

Mar. 04, 2013 Rise Set
Actual Time 6:48 AM EST 6:10 PM EST
Civil Twilight 6:19 AM EST 6:39 PM EST
Nautical Twilight 5:46 AM EST 7:12 PM EST
Astronomical Twilight 5:13 AM EST 7:45 PM EST
Moon 1:04 AM EST (3/4) 10:42 AM EST (3/4)
Length of Visible Light 12h 19m
Length of Day
11h 21m
Waning Gibbous, 52% of the Moon is Illuminated
Mar 4
Waning Gibbous
Mar 4
Last Quarter
Mar 11
New
Mar 19
First Quarter
Mar 27
Full

Hourly Weather History & Observations

Time (EST) Temp. Windchill Dew Point Humidity Pressure Visibility Wind Dir Wind Speed Gust Speed Precip Events Conditions
12:00 AM 23.0 °F 13.9 °F 15.8 °F 74% 29.96 in 9.0 mi NW 8.1 mph 17.3 mph N/A   Scattered Clouds
1:00 AM 23 °F - 15 °F 62% 29.97 in 10 mi WNW 9.2 mph - -   Overcast
1:00 AM 23.0 °F 11.7 °F 15.8 °F 74% 29.97 in 9.0 mi WNW 11.5 mph - N/A   Overcast
1:58 AM 23.0 °F 9.6 °F 15.8 °F 74% 29.97 in 9.0 mi WNW 16.1 mph - N/A   Mostly Cloudy
2:00 AM 23.0 °F 11.7 °F 15.8 °F 74% 29.97 in 9.0 mi NW 11.5 mph 18.4 mph N/A   Mostly Cloudy
2:35 AM 23.0 °F 11.1 °F 14.0 °F 68% 29.97 in 9.0 mi WNW 12.7 mph - N/A   Mostly Cloudy
2:49 AM 23.0 °F 12.4 °F 15.8 °F 74% 29.98 in 9.0 mi NW 10.4 mph 18.4 mph N/A   Mostly Cloudy
3:00 AM 23.0 °F 12.4 °F 14.0 °F 68% 29.98 in 9.0 mi NW 10.4 mph 18.4 mph N/A   Overcast
3:09 AM 23.0 °F 11.7 °F 14.0 °F 68% 29.99 in 9.0 mi NW 11.5 mph 18.4 mph N/A Snow Light Snow
3:22 AM 23.0 °F 12.4 °F 15.8 °F 74% 29.99 in 9.0 mi WNW 10.4 mph 18.4 mph N/A Snow Light Snow
3:53 AM 23.0 °F 14.7 °F 15.8 °F 74% 30.00 in 9.0 mi NW 6.9 mph - N/A Snow Light Snow
4:00 AM 23.0 °F 14.7 °F 15.8 °F 74% 30.00 in 9.0 mi WNW 6.9 mph - N/A Snow Light Snow
4:41 AM 21.2 °F 10.9 °F 15.8 °F 80% 30.00 in 9.0 mi West 9.2 mph - N/A   Mostly Cloudy
4:48 AM 21.2 °F 9.5 °F 15.8 °F 80% 30.00 in 9.0 mi West 11.5 mph - N/A   Scattered Clouds
5:00 AM 21.2 °F 10.9 °F 14.0 °F 74% 30.00 in 9.0 mi West 9.2 mph - N/A   Partly Cloudy
6:00 AM 21.2 °F 10.1 °F 14.0 °F 74% 30.01 in 9.0 mi WNW 10.4 mph - N/A   Clear
6:42 AM 21.2 °F 8.9 °F 14.0 °F 74% 30.03 in 9.0 mi West 12.7 mph - N/A   Mostly Cloudy
6:59 AM 21.2 °F 10.1 °F 14.0 °F 74% 30.03 in 9.0 mi West 10.4 mph 17.3 mph N/A   Scattered Clouds
7:00 AM 21 °F - 14 °F 66% 30.03 in 10 mi West 10.4 mph - -  
7:00 AM 21.2 °F 9.5 °F 14.0 °F 74% 30.03 in 9.0 mi West 11.5 mph 17.3 mph N/A   Scattered Clouds
8:00 AM 21.2 °F 10.9 °F 14.0 °F 74% 30.04 in 9.0 mi West 9.2 mph - N/A   Clear
9:00 AM 23.0 °F 10.6 °F 14.0 °F 68% 30.04 in 9.0 mi WNW 13.8 mph 19.6 mph N/A   Overcast
10:00 AM 24.8 °F 12.4 °F 14.0 °F 64% 30.04 in 9.0 mi West 15.0 mph 21.9 mph N/A   Overcast
11:00 AM 26.6 °F 16.2 °F 14.0 °F 59% 30.03 in 9.0 mi WNW 11.5 mph 18.4 mph N/A   Overcast
12:00 PM 28.4 °F 15.8 °F 14.0 °F 55% 30.03 in 9.0 mi WNW 18.4 mph 25.3 mph N/A   Mostly Cloudy
1:00 PM 30 °F - 16 °F 43% 30.02 in 10 mi West 15.0 mph - -  
1:00 PM 30.2 °F 18.5 °F 15.8 °F 55% 30.02 in 9.0 mi WNW 17.3 mph 23.0 mph N/A   Scattered Clouds
2:00 PM 32.0 °F 20.1 °F 17.6 °F 55% 30.01 in 9.0 mi WNW 19.6 mph - N/A   Overcast
3:00 PM 30.2 °F 18.1 °F 17.6 °F 60% 30.01 in 9.0 mi WNW 18.4 mph 24.2 mph N/A   Overcast
4:00 PM 30.2 °F 18.5 °F 19.4 °F 64% 30.02 in 9.0 mi West 17.3 mph 26.5 mph N/A   Overcast
5:00 PM 30.2 °F 19.3 °F 19.4 °F 64% 30.03 in 9.0 mi NW 15.0 mph 20.7 mph N/A   Overcast
6:00 PM 30.2 °F 19.8 °F 19.4 °F 64% 30.04 in 9.0 mi WNW 13.8 mph - N/A   Overcast
7:00 PM 28.4 °F 18.0 °F 19.4 °F 69% 30.06 in 9.0 mi WNW 12.7 mph - N/A   Mostly Cloudy
8:00 PM 26.6 °F 15.7 °F 17.6 °F 69% 30.08 in 9.0 mi NNW 12.7 mph 18.4 mph N/A   Mostly Cloudy
9:00 PM 26.6 °F 15.7 °F 17.6 °F 69% 30.10 in 9.0 mi WNW 12.7 mph 21.9 mph N/A   Overcast
10:00 PM 24.8 °F 13.4 °F 17.6 °F 74% 30.10 in 9.0 mi NW 12.7 mph 19.6 mph N/A   Clear
11:00 PM 24.8 °F 16.1 °F 17.6 °F 74% 30.11 in 9.0 mi WNW 8.1 mph - N/A   Clear